Location: Unspecified
(0.0000°N, 0.0000°E)
Time: 14:33:35
(UTC+00:00)

deb Explorer IX - Visible Passes

Search period start: 15 September 2024 00:00
Search period end: 25 September 2024 00:00
Orbit: 505 x 848 km, 38.7° (Epoch: 14 September)

Date Brightness Start Highest point End Pass type
(mag) Time Alt. Az. Time Alt. Az. Time Alt. Az.
15 Sep ? 04:32:29 51° SW 04:32:31 51° SW 04:36:29 10° SE visible
16 Sep ? 05:06:52 13° SW 05:07:44 13° SW 05:09:47 10° S visible
17 Sep ? 04:02:44 14° SSE 04:02:44 14° SSE 04:03:21 10° SSE visible
